Find Starlink 6345

NORAD ID: 56790 Int'l Des: 2023-078 Owner: SPXS Country: US Constellation: starlink operational
LEOCIRCULAR

当前视图

正在加载3D地球...

About Starlink 6345

Starlink 6345 (NORAD 56790) is a starlink constellation satellite (v1.5) launched May 31, 2023 by SPXS of US. It operates in LEO, CIRCULAR orbit with a mass of 305.00 kg.

即将过境

Passes for default location (London). Set your location on the main map for personalized predictions.

高度历史

Loading altitude history...

两行轨道根数

1 56790U 23078Z 26263.48420527 .00000194 00000-0 24080-4 0 9990
2 56790 70.0000 173.3551 0003005 269.7154 90.3661 14.98330199182848
Epoch: Sep 20, 2026 • Age: 18 hours

当前状态

高度 577.0 km
远地点 / 近地点 N/A
速度 7.57 km/s
星下点 -14.88°S, 94.95°W
发射日期 May 31, 2023
运行时间 3.3 years
类型 internet

技术详情

分类 Payload
质量 305.00 kg
干质量 290.00 kg
长度 0.20 m
跨度 9.00 m
形状 ? Box + pan
制造商 SPXS
平台类型 Starlink
阶段状态 In Orbit
所有者/国家 SPXS/US

Most Searched